Regional Weather Roundup
Issued by NWS

Home | Current Version | Previous Version | Text Only | Print | Product List | Glossary On
Versions: 1 2 3 4 5 6 7 8 9 10 11 12 13 14 15 16 17 18 19 20 21 22 23 24 25 26 27 28 29 30 31 32 33 34 35 36 37 38 39 40 41 42 43 44 45 46 47 48 49 50
000
ASUS43 KMPX 050910
RWRMN
WEATHER ROUNDUP FOR MINNESOTA
NATIONAL WEATHER SERVICE TWIN CITIES/CHANHASSEN MN
400 AM CDT WED AUG 05 2015


NOTE: "FAIR" INDICATES FEW OR NO CLOUDS BELOW 12,000 FEET WITH NO
SIGNIFICANT WEATHER AND/OR OBSTRUCTIONS TO VISIBILITY. N/A MEANS
CURRENT SKY AND/OR WEATHER CONDITIONS ARE NOT AVAILABLE.

MNZ060>063-068>070-051000-
   Twin Cities Metro

CITY           SKY/WX    TMP DP  RH WIND       PRES   REMARKS
TWIN CITIES    CLEAR     64  57  78 NE3       30.05R
ST PAUL        CLEAR     63  58  83 E7        30.05S
CRYSTAL        CLEAR     61  56  83 CALM      30.04R
BLAINE         CLEAR     61  57  88 E3        30.05S
LAKEVILLE      CLEAR     54  52  94 CALM      30.05S
EDEN PRAIRIE   CLEAR     62  55  77 CALM      30.03S
SOUTH ST PAUL  CLEAR     62  56  81 CALM      30.05S
LAKE ELMO      FAIR      59  55  88 CALM      30.07S
$$
MNZ001>005-007-008-013>017-022>024-027-028-051000-
   Northwest Minnesota

CITY           SKY/WX    TMP DP  RH WIND       PRES   REMARKS
BEMIDJI        PTCLDY    54  50  88 SE5       30.08F
HALLOCK        MOCLDY    54  52  94 CALM      30.04S
ROSEAU         PTCLDY    50  45  81 CALM      30.06F
WARROAD        PTCLDY    54  48  82 SE5       30.08S
THIEF RVR FALL PTCLDY    54  48  82 SE3       30.06S
CROOKSTON      PTCLDY    54  52  94 SE8       30.05F
FOSSTON        PTCLDY    54  48  82 SE5       30.07S
DETROIT LAKES  CLEAR     59  52  77 SE6       30.07F
MOORHEAD       CLEAR     57  54  88 SE6       30.04F
PARK RAPIDS    CLEAR     57  51  80 CALM      30.08S
MAHNOMEN       FAIR      56  53  88 SE5       30.06S
$$
MNZ006-009>011-018-025>026-051000-
   North Central Minnesota

CITY           SKY/WX    TMP DP  RH WIND       PRES   REMARKS
BAUDETTE       PTCLDY    47  46  97 CALM      30.08S
FLAG ISLAND    CLEAR     64  54  68 S6        30.06F
INTL FALLS     CLEAR     40  38  93 CALM      30.09S
WASKISH        PTCLDY    46  45  93 CALM      30.09S
BIG FORK       CLEAR     41  39  93 CALM      30.10S
LONGVILLE      PTCLDY    48  46  93 CALM      30.09R
GRAND RAPIDS   CLEAR     48  45  87 CALM      30.10S
CRANE LAKE     CLEAR     43  43 100 CALM      30.12S
ORR            CLEAR     43  39  87 CALM      30.08S
COOK           CLEAR     41  41 100 CALM      30.10F
WALKER         FAIR      55  51  86 CALM      30.09S
$$
MNZ012-019>021-037-051000-
   Northeast Minnesota

CITY           SKY/WX    TMP DP  RH WIND       PRES   REMARKS
DULUTH         MOCLDY    53  49  86 CALM      30.09R
ELY            CLEAR     46  45  93 CALM      30.09F
HIBBING        CLEAR     41  40  96 CALM      30.10S FOG
EVELETH        FOG       39  39 100 CALM      30.11S VSB 1/2
DULUTH HARBOR  MOCLDY    55  54  94 CALM      30.10R
TWO HARBORS    PTCLDY    52  46  82 CALM      30.08R
SILVER BAY     CLEAR     45  43  93 CALM      30.08R
GRAND MARAIS     N/A     52  49  89 CALM      30.07F
G MARAIS ARPRT CLEAR     43  39  87 N7        30.10F
$$
MNZ029>031-032-039>041-046>048-054>057-064-051000-
   West Central Minnesota

CITY           SKY/WX    TMP DP  RH WIND       PRES   REMARKS
FERGUS FALLS   CLEAR     63  54  72 E6        30.04F
WHEATON        CLEAR     52  48  87 SE3       30.05S
MORRIS         CLEAR     57  54  88 CALM      30.04S
ALEXANDRIA     CLEAR     58  54  86 E6        30.07F
ELBOW LAKE     FAIR      62  55  80 E8        30.04F
WADENA         CLEAR     54  52  94 E5        30.07S
GLENWOOD       CLEAR     55  54  94 NE7       30.06F
APPLETON       CLEAR     57  52  82 E3        30.04S
BENSON         CLEAR     52  50  93 CALM      30.04F
ORTONVILLE     CLEAR     61  57  88 E3        30.03F
MADISON        PTCLDY    55  54  94 CALM      30.04S
WILLMAR        FAIR      54  52  94 CALM      30.06F
$$
MNZ033>034-036-042>043-049>051-058-059-051000-
   Central Minnesota

CITY           SKY/WX    TMP DP  RH WIND       PRES   REMARKS
ST CLOUD       CLEAR     56  54  93 NE5       30.06S
SAUK CENTRE    FAIR      52  50  94 CALM      30.07S
PAYNESVILLE    CLEAR     49  49  99 CALM      30.06S
AITKIN         PTCLDY    48  43  81 CALM      30.08S
PINE RIVER     CLEAR     52  48  87 CALM      30.12S
BRAINERD       CLEAR     54  52  93 CALM      30.08S
STAPLES        CLEAR     52  52 100 CALM      30.07F
LONG PRAIRIE   FAIR      54  52  94 CALM      30.07S
LITCHFIELD     CLEAR     61  61 100 CALM      30.06S
BUFFALO        CLEAR     57  53  88 CALM      30.06S
MAPLE LAKE     CLEAR     57  55  94 CALM      30.07R
$$
MNZ037-044-045-052-053-051000-
   East Central Minnesota

CITY           SKY/WX    TMP DP  RH WIND       PRES   REMARKS
PRINCETON      CLEAR     55  54  94 CALM      30.07S
MORA           CLEAR     54  50  87 CALM      30.09S
CAMBRIDGE      CLEAR     55  48  76 CALM      30.05S
RUSH CITY      MOCLDY    56  53  92 NE3       30.07S
MOOSE LAKE     MOCLDY    50  50 100 CALM      30.08R
HINCKLEY       FAIR      52  52 100 CALM      30.09R
CLOQUET        CLEAR     46  45  93 CALM      30.09S
MCGREGOR       CLEAR     50  46  87 CALM      30.10R
$$
MNZ071>073-080-081-089-090-097-098-051000-
   Southwest Minnesota

CITY           SKY/WX    TMP DP  RH WIND       PRES   REMARKS
MONTEVIDEO     PTCLDY    54  50  87 CALM      30.06S
GRANITE FALLS  PTCLDY    54  52  92 CALM      30.06S
CANBY          MOCLDY    57  54  90 CALM      30.05S
MARSHALL       MOCLDY    57  52  82 CALM      30.05S
REDWOOD FALLS  MOCLDY    58  54  86 CALM      30.04S
OLIVIA         PTCLDY    54  48  82 CALM      30.04S
PIPESTONE      MOCLDY    61  55  82 CALM      30.04F
WINDOM         MOCLDY    54  52  94 CALM      30.05S
WORTHINGTON    MOCLDY    57  52  82 CALM      30.05S
JACKSON        MOCLDY    55  52  88 CALM      30.05F
TRACY          MOCLDY    63  57  82 SW6       30.05S
SLAYTON        MOCLDY    56  55  94 CALM      30.06S
$$
MNZ065>067-074>077-082>085-091>093-051000-
   South Central Minnesota

CITY           SKY/WX    TMP DP  RH WIND       PRES   REMARKS
MANKATO        PTCLDY    61  52  72 CALM      30.05S
NEW ULM        MOCLDY    57  54  88 CALM      30.04S
ST JAMES       MOCLDY    57  55  94 CALM      30.05F
FAIRMONT       MOCLDY    55  48  76 CALM      30.04F
GLENCOE        CLEAR     56  53  91 CALM      30.04S
FARIBAULT      PTCLDY    54  52  94 CALM      30.05S
OWATONNA       PTCLDY    55  52  88 CALM      30.05S
WASECA         PTCLDY    52  50  93 CALM      30.06S
ALBERT LEA     MOCLDY    54  52  94 CALM      30.05F
$$
MNZ078>079-086>088-094>096-051000-
   Southeast Minnesota

CITY           SKY/WX    TMP DP  RH WIND       PRES   REMARKS
ROCHESTER      PTCLDY    55  52  89 SW6       30.07R
RED WING       CLEAR     57  55  94 N3        30.04S
STANTON        CLEAR     54  51  92 CALM      30.04R
DODGE CENTER   PTCLDY    54  52  94 CALM      30.06S
WINONA         CLEAR     57  55  94 CALM      30.05S
AUSTIN         PTCLDY    55  54  94 CALM      30.05F
PRESTON        PTCLDY    56  51  82 SW5       30.07S
$$
ABBREVIATIONS USED IN REMARKS
   TC - TEMPERATURES IN CELSIUS
  WCI - WIND CHILL INDEX
   HX - HEAT INDEX
  VSB - VISIBILITY
$$


USA.gov is the U.S. government's official web portal to all federal, state and local government web resources and services.